Location: Campestrin
(46.4667°N, 11.7167°E)
Time: 03:34:04
(UTC+00:00)

Cosmos 1140 Rocket - Pass Details

Date: 18 April 2021
Orbit: 744 x 767 km, 74.1° (Epoch: 16 May)

Event Time Altitude Azimuth Distance (km) Brightness Sun altitude
Exits shadow 19:38:40 24° 126° (SE) 1,497 4.4 -15.2°
Maximum altitude 19:40:03 28° 100° (E) 1,384 4.3 -15.4°
Drops below altitude 10° 19:44:21 10° 43° (NE) 2,268 5.9 -16.0°
Sets 19:46:59 0° 32° (NNE) 3,197 6.8 -16.4°
